Regional Weather Roundup
Issued by NWS

Home | Current Version | Previous Version | Graphics & Text | Print | Product List | Glossary On
Versions: 1 2 3 4 5 6 7 8 9 10 11 12 13 14 15 16 17 18 19 20 21 22 23 24 25 26 27 28 29 30 31 32 33 34 35 36 37 38 39 40 41 42 43 44 45 46 47 48 49 50
000
ASUS43 KLSX 271007
RWRMO

WEATHER SUMMARY FOR MISSOURI
NATIONAL WEATHER SERVICE SPRINGFIELD MO
500 AM CDT THU APR 27 2017

NOTE: "FAIR" INDICATES FEW OR NO CLOUDS BELOW 12,000 FEET WITH NO
       SIGNIFICANT WEATHER AND/OR OBSTRUCTIONS TO VISIBILITY.
       CURRENT SKY AND/OR WEATHER CONDITIONS ARE NOT AVAILABLE FOR
       CHILLICOTHE AND FARMINGTON.

MOZ001>031-035>038-043-044-053-054-271100-
...NORTHERN AND WESTERN MISSOURI...

CITY           SKY/WX    TMP DP  RH WIND       PRES   REMARKS
KANSAS CTY INT CLOUDY    42  32  67 W10       29.67S
KANSAS C DTWN  CLOUDY    44  32  62 NW7       29.69R
LEE`S SUMMIT   CLOUDY    43  35  73 NW12      29.68R
ST JOSEPH      CLOUDY    43  35  73 W7        29.67S
CHILLICOTHE      N/A     42  34  73 W6        29.64S
KIRKSVILLE     CLOUDY    41  32  70 W7        29.60R

$$
MOZ066>068-077>081-088>096-101>105-271100-
...SOUTHWEST MISSOURI...

CITY           SKY/WX    TMP DP  RH WIND       PRES   REMARKS
SPRINGFIELD    CLOUDY    43  39  86 NW10      29.69R
JOPLIN         CLEAR     40  38  93 CALM      29.73S
BRANSON        PTCLDY    39  39 100 CALM      29.73R

$$
MOZ032>034-039>042-045>050-055>058-069>072-271100-
...CENTRAL MISSOURI...

CITY           SKY/WX    TMP DP  RH WIND       PRES   REMARKS
COLUMBIA       CLOUDY    43  41  93 W12       29.64R
JEFFERSON CITY CLOUDY    46  40  79 W14       29.65R
ROLLA          CLOUDY    42  41  96 W13       29.63R
SEDALIA        CLOUDY    44  40  85 W9        29.67S
WHITEMAN AFB   CLOUDY    42  42 100 W8        29.66R
OSAGE BEACH    CLOUDY    43  40  89 NW6       29.67S

$$
MOZ051-052-059>065-271100-
...EAST CENTRAL MISSOURI...

CITY           SKY/WX    TMP DP  RH WIND       PRES   REMARKS
ST LOUIS INTL  DRIZZLE   49  44  83 W15       29.58R
SPIRIT OF STL  LGT RAIN  47  45  93 W8        29.60R
ST CHARLES     CLOUDY    48  44  86 W14G23    29.57R

$$
MOZ072>076-082>087-097>100-106>115-271100-
...SOUTH CENTRAL AND SOUTHEAST MISSOURI...

CITY           SKY/WX    TMP DP  RH WIND       PRES   REMARKS
CAPE GIRARDEAU CLOUDY    50  45  83 W12       29.63R
FARMINGTON     CLOUDY    46  43  89 W8        29.64R
POPLAR BLUFF   CLOUDY    50  45  83 W12       29.66R
WEST PLAINS    CLOUDY    45  41  86 W5        29.68R

$$



USA.gov is the U.S. government's official web portal to all federal, state and local government web resources and services.